GPS BIIR-4 (PRN 20)

Last updated on Sat Nov 15 2025 00:03:18 GMT+0000 (Coordinated Universal Time)

1 26360U 00025A 25318.68574779 -.00000109 00000+0 00000+0 0 9995 2 26360 55.0291 27.9728 0038526 239.3029 121.7467 2.00570078186976
UTC large
Height (km)
Speed (km/s)
/
Latitude / Longitude
Inclination (degrees)
Orbital Period (minutes)
Azimuth
Elevation
Range (km)
Doppler Factor

Next 0 passes for location: London (51.5072 / 0.1276)

Sorry there are no passes over London.